Regional Weather Roundup
Issued by NWS

Home | Current Version | Previous Version | Text Only | Print | Product List | Glossary On
Versions: 1 2 3 4 5 6 7 8 9 10 11 12 13 14 15 16 17 18 19 20 21 22 23 24 25 26 27
000
ASUS45 KREV 171010
RWRNV
NEVADA REGIONAL WEATHER ROUNDUP
NATIONAL WEATHER SERVICE RENO NV
300 AM PDT THU APR 17 2014

NOTE: "FAIR" INDICATES FEW OR NO CLOUDS BELOW 12,000 FEET WITH NO
SIGNIFICANT WEATHER AND/OR OBSTRUCTIONS TO VISIBILITY.

NVZ001-003-004-171100-
WESTERN NEVADA

CITY           SKY/WX    TMP DP  RH WIND       PRES   REMARKS
RENO           FAIR      51  32  48 CALM      29.98F
CARSON CITY    FAIR      46  23  39 CALM      29.99S
MINDEN         CLEAR     39  27  60 CALM      30.00S
PYRAMID LAKE     N/A     57 N/A N/A SW3         N/A
FALLON         FAIR      42  21  43 S5        29.95S
LOVELOCK       FAIR      39  19  44 N3        29.95F
HAWTHORNE      CLEAR     48  23  37 CALM      29.97S
$$

NVZ002-CAZ072-073-171100-
NORTHERN AND CENTRAL SIERRA

CITY           SKY/WX    TMP DP  RH WIND       PRES   REMARKS
S. LAKE TAHOE  FAIR      37  31  78 CALM      30.03F
TRUCKEE        FAIR      32  32 100 CALM      30.03F FOG
SQUAW VLY 8000   N/A     39  27  60 CALM        N/A
BLUE CANYON    FAIR      54  33  45 NE5       29.97F
MAMMOTH LAKES  FAIR      39  25  56 CALM      30.07F
BRIDGEPORT     FAIR      32  23  69 CALM      30.05F
$$

NVZ030-031-036-171100-
NORTHERN NEVADA

CITY           SKY/WX    TMP DP  RH WIND       PRES   REMARKS
ELKO           FAIR      36  26  67 E5        30.02S
WINNEMUCCA     FAIR      47  25  42 NE10      29.98F
WENDOVER       FAIR      39  19  45 W5        30.01S
$$

NVZ035-037-171100-
CENTRAL NEVADA

CITY           SKY/WX    TMP DP  RH WIND       PRES   REMARKS
ELY            FAIR      29  22  75 S12       30.05F
$$

NVZ013-014-171100-
SOUTH CENTRAL NEVADA

CITY           SKY/WX    TMP DP  RH WIND       PRES   REMARKS
TONOPAH        FAIR      46  21  37 N10       30.01R
$$

NVZ017-020-022-171100-
SOUTHERN NEVADA

CITY           SKY/WX    TMP DP  RH WIND       PRES   REMARKS
LAS VEGAS      FAIR      69  24  18 CALM      29.79R
N. LAS VEGAS   FAIR      65  25  22 SW6       29.82R
NELLIS AFB     FAIR      69  26  20 E13       29.81R
HENDERSON      HVY RAIN  61  22  22 S3        29.85R
MERCURY        FAIR      59  21  23 N5        29.86S
$$



USA.gov is the U.S. government's official web portal to all federal, state and local government web resources and services.